User: anonymous   Login
Location: Caltech
(34.1382°N, 118.1253°W)
Time: 06:40:14
(UTC-07:00)
Language:

Iridium 62 - Orbit

View from above orbital plane
View from above orbital plane
View from above satellite
View from above satellite

Ground track
Ground track

The orbit data is extracted from the following two-line orbital elements,

1 25285U 98021A   16271.67480953  .00000019  00000-0 -42257-6 0  9998
2 25285  86.3983 333.6661 0002331  97.9455 262.2006 14.34228655967399
Epoch (UTC): 27 September 2016 16:11:43
Eccentricity: 0.0002331
inclination: 86.3983°
perigee height: 776 km
apogee height: 779 km
right ascension of ascending node: 333.6661°
argument of perigee: 97.9455°
revolutions per day: 14.34228655
mean anomaly at epoch: 262.2006°
orbit number at epoch: 96739

The dashed part of the orbit path shows where the satellite is in the earth's shadow,  

DLR